Temp_Advection
nan nan nan nan nan nan nan nan nan nan nan nan nan nan nan nan nan nan nan nan nan nan
nan 0 0 0 0 0 0 0 0 0 0 0 0 0 0 0 0 -0 -0 0 0 nan
nan 0 0 0 1 0 0 0 0 1 0 0 0 0 0 0 0 0 0 0 -0 nan
nan 0 0 1 1 0 0 0 0 0 0 0 0 0 0 0 0 0 0 0 0 nan
nan 1 1 1 0 0 0 0 0 0 0 0 0 0 0 0 0 0 1 0 0 nan
nan 1 0 0 0 0 0 0 0 0 0 0 0 0 0 0 0 1 1 1 0 nan
nan 1 0 0 1 1 0 0 0 0 0 0 0 0 1 1 1 1 1 1 1 nan
nan 1 1 1 1 0 0 -0 0 0 0 0 0 0 0 0 1 1 1 1 1 nan
nan 1 1 1 0 -0 -0 0 0 0 1 1 1 1 1 1 1 1 1 0 0 nan
nan 0 0 0 -0 -0 0 0 1 0 0 1 1 1 1 0 1 1 1 1 0 nan
nan -0 -0 0 0 0 0 0 0 0 1 1 1 1 1 0 1 1 1 0 0 nan
nan 0 0 0 1 1 0 0 0 0 0 1 0 0 0 0 1 0 0 0 0 nan
nan 0 0 1 0 0 0 0 0 0 0 0 0 0 0 0 0 0 0 0 0 nan
nan nan nan nan nan nan nan nan nan nan nan nan nan nan nan nan nan nan nan nan nan nan
Wind_Speed
10 12 10 7 5 9 8 9 8 9 7 8 12 11 11 11 11 9 10 9 11 12
14 12 10 10 14 12 14 9 12 15 12 11 12 12 11 10 12 15 14 12 12 12
14 14 16 16 18 14 15 14 14 15 11 12 14 14 13 12 12 15 16 14 12 12
14 14 16 18 17 15 17 17 14 13 13 14 14 16 15 14 12 16 17 15 17 13
18 19 18 18 15 18 17 16 16 14 14 14 13 15 17 18 16 17 20 16 16 16
19 17 17 16 16 17 17 12 14 12 13 14 15 17 18 19 18 19 23 18 20 17
18 17 15 15 15 14 12 12 10 11 13 14 17 18 20 20 19 19 17 23 23 17
16 16 15 17 15 14 15 15 15 16 16 16 16 19 18 18 20 20 21 22 19 18
18 19 17 19 18 17 17 17 18 19 20 21 19 21 17 18 19 20 21 19 19 19
14 13 13 15 16 18 19 19 19 17 17 19 22 24 17 21 23 20 18 18 17 20
15 16 17 17 17 17 17 18 18 18 17 18 21 19 18 17 18 18 16 16 15 17
13 14 15 16 17 17 16 16 16 15 14 13 14 13 14 13 12 12 12 13 14 15
12 13 14 14 14 14 14 14 13 11 11 10 9 9 8 8 8 9 11 11 12 12
11 12 13 14 14 13 12 11 10 9 6 7 6 6 8 9 10 10 9 9 10 10
Wind_Direction
195 185 202 241 201 202 242 271 255 264 271 237 266 289 301 279 281 274 271 265 266 262
192 196 202 221 205 202 206 224 240 255 257 259 274 282 290 286 257 271 273 264 259 265
211 215 206 224 232 214 223 226 236 255 252 251 265 274 278 273 264 269 275 275 270 269
217 221 222 224 225 224 225 231 238 245 244 254 255 262 273 277 255 263 269 256 261 263
226 223 228 228 220 226 227 226 233 235 243 253 251 255 258 264 265 252 256 258 253 263
233 226 227 228 225 230 233 222 238 240 241 247 252 249 252 258 260 254 248 248 241 254
228 224 222 224 223 227 232 226 235 254 266 264 254 250 253 251 253 251 248 245 252 245
224 213 215 217 220 221 233 237 235 237 242 251 255 255 252 252 254 246 242 262 252 246
209 205 217 225 227 233 247 253 251 250 251 251 249 253 253 248 246 249 255 260 264 259
212 198 220 231 237 245 257 263 270 273 267 263 257 255 256 253 250 246 250 264 265 265
207 214 231 244 256 260 265 271 276 276 273 267 261 259 258 250 241 245 253 261 257 263
237 243 247 252 259 265 270 277 283 288 288 275 269 262 251 245 248 263 257 256 260 259
248 252 257 262 264 272 277 280 289 292 287 272 270 272 263 269 276 257 258 260 265 276
250 256 260 263 267 272 277 283 294 292 280 268 256 262 267 267 266 265 269 274 277 283
Height
1518 1520 1522 1523 1522 1523 1524 1525 1525 1527 1528 1529 1528 1529 1529 1529 1528 1526 1524 1524 1526 1529
1516 1517 1519 1520 1522 1523 1524 1524 1524 1524 1525 1526 1526 1526 1525 1526 1526 1525 1524 1522 1519 1522
1513 1515 1517 1517 1518 1520 1519 1521 1520 1520 1522 1522 1523 1522 1522 1522 1524 1525 1525 1523 1521 1519
1511 1512 1513 1514 1515 1516 1516 1516 1517 1517 1518 1518 1520 1520 1520 1520 1520 1519 1520 1520 1517 1515
1507 1509 1509 1511 1512 1513 1512 1512 1513 1513 1514 1514 1515 1517 1516 1514 1513 1514 1516 1518 1515 1511
1502 1504 1507 1508 1510 1509 1510 1510 1509 1510 1510 1511 1511 1511 1512 1511 1510 1511 1511 1513 1510 1507
1498 1500 1502 1504 1506 1507 1507 1507 1507 1506 1507 1506 1507 1506 1507 1506 1505 1505 1505 1506 1507 1502
1495 1497 1499 1500 1502 1504 1503 1502 1501 1501 1501 1501 1501 1499 1499 1503 1501 1498 1499 1501 1503 1499
1490 1492 1493 1496 1497 1498 1498 1498 1497 1495 1494 1493 1493 1493 1494 1495 1494 1494 1494 1495 1498 1497
1487 1490 1491 1493 1493 1492 1492 1492 1492 1491 1490 1488 1488 1488 1489 1490 1489 1488 1491 1492 1493 1492
1483 1484 1486 1488 1488 1488 1489 1488 1486 1485 1484 1483 1484 1483 1483 1485 1485 1486 1488 1488 1489 1488
1482 1482 1482 1483 1483 1483 1483 1483 1481 1479 1478 1479 1480 1478 1480 1481 1480 1483 1486 1485 1486 1485
1480 1480 1479 1479 1479 1479 1478 1477 1476 1475 1475 1476 1476 1476 1477 1477 1477 1480 1482 1482 1482 1481
1476 1476 1476 1475 1475 1475 1474 1473 1473 1474 1474 1475 1474 1474 1476 1475 1475 1478 1479 1479 1479 1478